Weather observations for the past three days for
Waco, Mc Gregor Executive Airport
Imperial (Metric)
Date Time (cdt) Wind (mph) Vis. (mi.) Weather Sky Cond. Temperature (ºF) Relative Humidity Wind Chill (°F) Heat Index (°F) Pressure Precipitation (in)
Air Dwpt 6 hour altimeter (in) sea level (mb) 1 hr 3 hr 6 hr
Max. Min.
23 06:56 Calm 8.00 Overcast OVC007 73.9 73.9 73.9 73.9 100% 30.04 1016.6 0.03
23 05:56 Calm 9.00 Overcast OVC007 73.9 73.9 100% 30.03 1016.2
23 04:56 Calm 10.00 Overcast FEW007 OVC110 73.9 73 97% 30.02 1016.0 0.01
23 03:56 S 6 10.00 Light Rain FEW002 BKN095 73.9 73 97% 30.01 1015.4 0.02
23 02:56 S 3 9.00 Light Rain FEW040 SCT095 OVC110 73.9 73.9 100% 30 1015.4 0.01
23 01:56 SE 3 10.00 Mostly Cloudy FEW035 BKN080 BKN120 73.9 73 97% 30.01 1015.6 0.01
23 00:56 Calm 10.00 Partly Cloudy SCT011 73.9 73 78.1 73.9 97% 30.03 1016.1 0.01
22 23:56 Calm 10.00 Light Rain FEW007 SCT075 73.9 73 97% 30.02 1016.0 0.01
22 22:56 S 3 10.00 Fair CLR 75 73 94% 73 30.02 1015.7
22 21:56 Calm 10.00 A Few Clouds FEW120 75 73 94% 73 30.01 1015.4
22 20:56 SE 6 10.00 Partly Cloudy FEW011 SCT025 75 73.9 96% 73 30 1015.0
22 19:56 E 9 10.00 Mostly Cloudy SCT017 BKN060 77 73.9 90% 78 29.99 1015.0
22 18:56 E 3 10.00 Partly Cloudy SCT110 78.1 73.9 79 72 87% 81 29.99 1014.8 0.06
22 17:56 NE 5 10.00 A Few Clouds FEW013 78.1 73 85% 81 29.99 1014.9
22 16:56 Calm 10.00 Mostly Cloudy FEW009 BKN065 BKN075 78.1 73.9 87% 81 29.99 1014.9
22 15:56 E 3 10.00 Fair CLR 77 73 88% 78 29.99 1015.0 0.02 0.06
22 14:56 W 7 10.00 Thunderstorm in Vicinity Light Rain FEW043 OVC065 72 71.1 97% 29.99 1015.0 0.03
22 13:56 S 8 10.00 Thunderstorm in Vicinity FEW036 SCT100 73.9 73 97% 30.01 1015.5 0.01
22 12:56 SE 6 10.00 Thunderstorm in Vicinity Light Rain FEW050 75.9 73 82.9 73.9 91% 76 30 1015.3 0.03 0.33
22 11:56 SW 6 2.50 Thunderstorm in Vicinity Rain Fog/Mist BKN017 OVC027 75.9 75 97% 75 30.01 1015.7 0.3
22 10:56 Calm 10.00 A Few Clouds FEW017 82.9 75.9 79% 91 30.02 1015.8
22 09:56 S 3 10.00 Fair CLR 82.9 73.9 74% 89 30.02 1015.8
22 08:56 Calm 10.00 Overcast OVC065 78.1 73.9 87% 81 30.01 1015.5
22 07:56 SW 3 10.00 Mostly Cloudy BKN080 75.9 73.9 94% 75 29.99 1014.9
22 06:56 Calm 9.00 A Few Clouds FEW070 73.9 73 77 73 97% 29.98 1014.6 0.01 0.26
22 05:56 E 3 2.00 Heavy Rain Fog/Mist SCT040 OVC055 73.9 72 94% 29.99 1015.0 0.25
22 04:56 SE 3 10.00 Overcast OVC045 73.9 72 94% 29.99 1014.9
22 03:56 W 3 10.00 A Few Clouds FEW045 73.9 71.1 91% 29.98 1014.7
22 02:56 Calm 10.00 Fair CLR 75 71.1 88% 75 29.98 1014.4
22 01:56 Calm 10.00 Fair CLR 75.9 72 88% 76 29.99 1014.8
22 00:56 Calm 10.00 Fair CLR 77 71.1 90 77 82% 79 30 1015.2
21 23:56 Calm 10.00 Mostly Cloudy BKN070 BKN110 78.1 72 82% 80 30.01 1015.5
21 22:56 SE 5 10.00 Fair CLR 78.1 72 82% 80 30.01 1015.5
21 21:56 Calm 10.00 Partly Cloudy SCT042 SCT060 80.1 71.1 74% 84 29.98 1014.4
21 20:56 SW 9 10.00 Fair CLR 81 68 65% 84 29.99 1014.7
21 19:56 SE 6 10.00 Fair CLR 88 70 55% 93 29.96 1013.8
21 18:56 SE 6 10.00 Fair CLR 90 70 91 75.9 52% 95 29.96 1013.9
21 17:56 S 8 10.00 Fair CLR 90 70 52% 95 29.97 1014.1
21 16:56 SE 5 10.00 Fair CLR 88 70 55% 93 29.97 1014.3
21 15:56 Calm 10.00 Light Rain BKN060 84.9 72 65% 91 29.98 1014.4
21 14:56 SE 3 10.00 Fair CLR 86 69.1 57% 90 29.98 1014.6
21 13:56 SE 5 10.00 Fair CLR 84.9 69.1 59% 89 30 1015.3
21 12:56 N 8 10.00 Light Rain FEW008 BKN065 75.9 70 78.1 73.9 82% 77 30.04 1016.4
21 11:56 Calm 10.00 A Few Clouds FEW095 75.9 73 91% 76 30.07 1017.5
21 10:56 NE 6 10.00 Mostly Cloudy BKN090 75 73 94% 73 30.05 1016.9
21 09:56 N 7 10.00 Thunderstorm in Vicinity BKN085 77 70 79% 79 30.07 1017.6
21 08:56 N 7 10.00 Partly Cloudy SCT065 77 70 79% 79 30.06 1017.1
21 07:56 Calm 10.00 A Few Clouds FEW065 75.9 69.1 79% 77 30.04 1016.6
21 06:56 Calm 10.00 A Few Clouds FEW110 73.9 68 79 73 82% 30.03 1016.1
21 05:56 Calm 10.00 Fair CLR 73.9 68 82% 30.02 1015.7
21 04:56 S 3 10.00 Fair CLR 73.9 68 82% 30.01 1015.4
21 03:56 S 3 10.00 Overcast OVC110 75.9 66.9 74% 77 30.02 1015.7
21 02:56 SE 6 10.00 Overcast OVC110 77 66.9 71% 79 30.02 1015.7
21 01:56 SE 6 10.00 Mostly Cloudy BKN110 78.1 66 67% 80 30.03 1016.2
21 00:56 SE 7 10.00 Mostly Cloudy BKN110 79 64.9 91.9 78.1 62% 81 30.03 1016.0
20 23:56 SE 5 10.00 Fair CLR 79 64.9 62% 81 30.03 1016.1
20 22:56 Calm 10.00 Fair CLR 80.1 64 58% 82 30.04 1016.4
20 21:56 SE 6 10.00 Fair CLR 82 63 53% 83 30.01 1015.5
20 20:56 E 7 10.00 Fair CLR 84 64 51% 85 30.01 1015.5
20 19:56 SE 12 10.00 Fair CLR 88 64 45% 89 29.99 1015.0
20 18:56 SE 13 10.00 Fair CLR 91.9 64.9 95 88 41% 94 29.99 1014.9
20 17:56 SE 9 10.00 Fair CLR 93.9 62.1 35% 95 29.98 1014.6
20 16:56 E 9 10.00 Fair CLR 93.9 63 36% 95 30 1015.1
20 15:56 NE 5 10.00 Fair CLR 91.9 63 38% 93 30.02 1015.8
20 14:56 Calm 10.00 A Few Clouds FEW060 91 63 39% 92 30.03 1016.3
20 13:56 Vrbl 6 10.00 Partly Cloudy SCT055 90 64.9 44% 92 30.06 1017.0
20 12:56 NE 3 10.00 Fair CLR 88 64.9 89.1 68 46% 90 30.07 1017.6
20 11:56 Vrbl 5 10.00 Fair CLR 87.1 64.9 48% 89 30.08 1017.8
20 10:56 S 6 10.00 Overcast OVC037 86 66.9 53% 89 30.09 1018.0
20 09:56 SE 8 10.00 A Few Clouds FEW044 82.9 66.9 59% 86 30.08 1018.1
20 08:56 SE 3 10.00 Fair CLR 79 66.9 67% 81 30.09 1018.1
20 07:56 Calm 10.00 Fair CLR 72 66.9 84% 30.07 1017.8
Date Time (cdt) Wind (mph) Vis. (mi.) Weather Sky Cond. Air Dwpt Max. Min. Relative Humidity Wind Chill (°F) Heat Index (°F) altimeter (in) sea level (mb) 1 hr 3 hr 6 hr
6 hour
Temperature (ºF) Pressure Precipitation (in)